• In Hungary
  • List of Countries
  • For 7 days
  • Water Temperature
  • Satellite Maps
  • Weather Map
  • News
  • Weather Widgets
  • user-avatar
    Login

    Hourly Weather Agra

    Today, 20 August, Sunday

    Time Temperature Precipitation Wind Pressure Humidity
    00:00 +31°C° 0 mm 2 mps 737 mmHg 76%
    01:00 +31°C° 0 mm 2 mps 737 mmHg 77%
    02:00 +31°C° 0 mm 2 mps 737 mmHg 78%
    03:00 +31°C° 0 mm 2 mps 737 mmHg 79%
    04:00 +30°C° 0 mm 3 mps 737 mmHg 79%
    05:00 +30°C° 0 mm 2 mps 737 mmHg 80%
    06:00 +31°C° 0 mm 3 mps 737 mmHg 76%
    07:00 +33°C° 0 mm 3 mps 738 mmHg 72%
    08:00 +33°C° 0 mm 4 mps 738 mmHg 69%
    09:00 +35°C° 0.1 mm 4 mps 737 mmHg 63%
    10:00 +36°C° 0.1 mm 4 mps 737 mmHg 57%
    11:00 +37°C° 0 mm 4 mps 737 mmHg 52%
    12:00 +37°C° 0 mm 4 mps 737 mmHg 51%
    13:00 +38°C° 0 mm 4 mps 736 mmHg 50%
    14:00 +38°C° 0 mm 4 mps 736 mmHg 49%
    15:00 +38°C° 0 mm 4 mps 735 mmHg 51%
    16:00 +38°C° 0 mm 4 mps 735 mmHg 52%
    17:00 +37°C° 0 mm 4 mps 735 mmHg 53%
    18:00 +37°C° 0 mm 3 mps 735 mmHg 56%
    19:00 +36°C° 0 mm 3 mps 735 mmHg 59%
    20:00 +35°C° 0 mm 3 mps 735 mmHg 62%
    21:00 +35°C° 0 mm 3 mps 735 mmHg 64%
    22:00 +34°C° 0 mm 3 mps 736 mmHg 65%
    23:00 +34°C° 0 mm 3 mps 736 mmHg 66%

    Tomorrow, 21 August, Monday

    Time Temperature Precipitation Wind Pressure Humidity
    00:00 +34°C° 0.1 mm 3 mps 736 mmHg 68%
    01:00 +33°C° 0.1 mm 4 mps 735 mmHg 69%
    02:00 +33°C° 0.1 mm 4 mps 735 mmHg 70%
    03:00 +33°C° 0.1 mm 3 mps 735 mmHg 71%
    04:00 +31°C° 0.1 mm 3 mps 735 mmHg 73%
    05:00 +31°C° 0.1 mm 3 mps 735 mmHg 74%
    06:00 +33°C° 0 mm 3 mps 736 mmHg 70%
    07:00 +34°C° 0 mm 4 mps 736 mmHg 66%
    08:00 +35°C° 0 mm 4 mps 736 mmHg 63%
    09:00 +36°C° 0 mm 4 mps 736 mmHg 58%
    10:00 +37°C° 0 mm 4 mps 736 mmHg 53%
    11:00 +38°C° 0 mm 4 mps 736 mmHg 48%
    12:00 +38°C° 0 mm 4 mps 735 mmHg 48%
    13:00 +38°C° 0 mm 4 mps 735 mmHg 48%
    14:00 +38°C° 0 mm 4 mps 734 mmHg 48%
    15:00 +38°C° 0 mm 4 mps 734 mmHg 49%
    16:00 +38°C° 0 mm 4 mps 734 mmHg 50%
    17:00 +38°C° 0 mm 4 mps 734 mmHg 52%
    18:00 +37°C° 0 mm 3 mps 734 mmHg 55%
    19:00 +36°C° 0 mm 3 mps 734 mmHg 58%
    20:00 +35°C° 0 mm 3 mps 734 mmHg 61%
    21:00 +35°C° 0.2 mm 3 mps 735 mmHg 63%
    22:00 +34°C° 0.2 mm 3 mps 735 mmHg 65%
    23:00 +34°C° 0.2 mm 3 mps 735 mmHg 67%

    Day after tomorrow, 22 August, Tuesday

    Time Temperature Precipitation Wind Pressure Humidity
    00:00 +34°C° 0.1 mm 3 mps 735 mmHg 69%
    01:00 +33°C° 0.1 mm 3 mps 735 mmHg 70%
    02:00 +33°C° 0.1 mm 3 mps 735 mmHg 72%
    03:00 +31°C° 1.4 mm 2 mps 735 mmHg 73%
    04:00 +31°C° 1.4 mm 2 mps 735 mmHg 75%
    05:00 +31°C° 1.4 mm 2 mps 735 mmHg 76%
    06:00 +31°C° 0.6 mm 2 mps 735 mmHg 73%
    07:00 +32°C° 0.6 mm 2 mps 736 mmHg 70%
    08:00 +32°C° 0.6 mm 2 mps 736 mmHg 66%
    09:00 +34°C° 0.1 mm 2 mps 736 mmHg 62%
    10:00 +35°C° 0.1 mm 2 mps 736 mmHg 57%
    11:00 +36°C° 0.1 mm 2 mps 736 mmHg 53%
    12:00 +37°C° 0 mm 2 mps 736 mmHg 52%
    13:00 +37°C° 0 mm 3 mps 736 mmHg 51%
    14:00 +38°C° 0 mm 3 mps 735 mmHg 50%
    15:00 +37°C° 0 mm 3 mps 735 mmHg 53%
    16:00 +36°C° 0 mm 3 mps 735 mmHg 56%
    17:00 +36°C° 0 mm 4 mps 734 mmHg 59%
    18:00 +35°C° 0 mm 3 mps 735 mmHg 63%
    19:00 +34°C° 0 mm 3 mps 735 mmHg 66%
    20:00 +33°C° 0 mm 3 mps 736 mmHg 69%
    21:00 +33°C° 0.4 mm 3 mps 736 mmHg 71%
    22:00 +32°C° 0.4 mm 2 mps 736 mmHg 72%
    23:00 +32°C° 0.4 mm 2 mps 736 mmHg 73%

    23 August, Wednesday

    Time Temperature Precipitation Wind Pressure Humidity
    00:00 +31°C° 0.5 mm 3 mps 736 mmHg 74%
    01:00 +31°C° 0.5 mm 3 mps 736 mmHg 76%
    02:00 +31°C° 0.5 mm 3 mps 736 mmHg 77%
    03:00 +31°C° 1.1 mm 3 mps 736 mmHg 78%
    04:00 +30°C° 1.1 mm 2 mps 736 mmHg 79%
    05:00 +30°C° 1.1 mm 2 mps 736 mmHg 81%
    06:00 +30°C° 0.2 mm 2 mps 737 mmHg 80%
    07:00 +30°C° 0.2 mm 2 mps 738 mmHg 80%
    08:00 +30°C° 0.2 mm 2 mps 738 mmHg 80%
    09:00 +31°C° 0 mm 2 mps 738 mmHg 75%
    10:00 +32°C° 0 mm 2 mps 738 mmHg 70%
    11:00 +34°C° 0 mm 2 mps 738 mmHg 65%
    12:00 +35°C° 0.1 mm 2 mps 738 mmHg 61%
    13:00 +35°C° 0.1 mm 2 mps 737 mmHg 58%
    14:00 +35°C° 0.1 mm 1 mps 737 mmHg 54%
    15:00 +36°C° 0 mm 2 mps 737 mmHg 55%
    16:00 +36°C° 0 mm 2 mps 736 mmHg 57%
    17:00 +35°C° 0 mm 3 mps 736 mmHg 58%
    18:00 +34°C° 0 mm 2 mps 736 mmHg 63%
    19:00 +34°C° 0 mm 2 mps 737 mmHg 67%
    20:00 +32°C° 0 mm 2 mps 737 mmHg 71%
    21:00 +31°C° 0 mm 2 mps 737 mmHg 72%
    22:00 +31°C° 0 mm 2 mps 737 mmHg 73%
    23:00 +31°C° 0 mm 2 mps 737 mmHg 73%

    24 August, Thursday

    Time Temperature Precipitation Wind Pressure Humidity
    00:00 +31°C° 0.2 mm 1 mps 737 mmHg 74%
    01:00 +31°C° 0.2 mm 1 mps 736 mmHg 74%
    02:00 +30°C° 0.2 mm 1 mps 736 mmHg 74%
    03:00 +30°C° 0.7 mm 1 mps 736 mmHg 75%
    04:00 +30°C° 0.7 mm 1 mps 736 mmHg 76%
    05:00 +30°C° 0.7 mm 1 mps 736 mmHg 77%
    06:00 +31°C° 0.4 mm 1 mps 737 mmHg 73%
    07:00 +32°C° 0.4 mm 1 mps 737 mmHg 69%
    08:00 +34°C° 0.4 mm 2 mps 738 mmHg 65%
    09:00 +34°C° 0.3 mm 1 mps 738 mmHg 59%
    10:00 +36°C° 0.3 mm 1 mps 738 mmHg 54%
    11:00 +35°C° 0.3 mm 0 mps 737 mmHg 48%
    12:00 +37°C° 0 mm 1 mps 737 mmHg 46%
    13:00 +39°C° 0 mm 1 mps 736 mmHg 45%
    14:00 +39°C° 0 mm 1 mps 735 mmHg 44%
    15:00 +39°C° 0 mm 1 mps 735 mmHg 45%
    16:00 +39°C° 0 mm 1 mps 735 mmHg 46%
    17:00 +37°C° 0 mm 1 mps 735 mmHg 47%
    18:00 +37°C° 0 mm 1 mps 735 mmHg 49%
    19:00 +36°C° 0 mm 1 mps 735 mmHg 52%
    20:00 +35°C° 0 mm 1 mps 736 mmHg 54%
    21:00 +35°C° 0 mm 1 mps 736 mmHg 55%
    22:00 +34°C° 0 mm 1 mps 736 mmHg 56%
    23:00 +34°C° 0 mm 1 mps 736 mmHg 57%

    25 August, Friday

    Time Temperature Precipitation Wind Pressure Humidity
    00:00 +34°C° 0 mm 1 mps 735 mmHg 58%
    01:00 +34°C° 0 mm 1 mps 735 mmHg 59%
    02:00 +33°C° 0 mm 1 mps 735 mmHg 60%
    03:00 +33°C° 0 mm 1 mps 735 mmHg 61%
    04:00 +33°C° 0 mm 1 mps 735 mmHg 63%
    05:00 +32°C° 0 mm 1 mps 735 mmHg 64%
    06:00 +33°C° 0.2 mm 1 mps 736 mmHg 62%
    07:00 +34°C° 0.2 mm 1 mps 736 mmHg 60%
    08:00 +34°C° 0.2 mm 1 mps 737 mmHg 59%
    09:00 +36°C° 0.1 mm 1 mps 736 mmHg 54%
    10:00 +35°C° 0.1 mm 0 mps 736 mmHg 49%
    11:00 +37°C° 0.1 mm 0 mps 736 mmHg 44%
    12:00 +39°C° 0 mm 1 mps 735 mmHg 44%
    13:00 +39°C° 0 mm 1 mps 735 mmHg 45%
    14:00 +39°C° 0 mm 1 mps 734 mmHg 45%
    15:00 +38°C° 0.1 mm 2 mps 734 mmHg 47%
    16:00 +38°C° 0.1 mm 2 mps 734 mmHg 49%
    17:00 +38°C° 0.1 mm 2 mps 733 mmHg 51%
    18:00 +37°C° 0.1 mm 2 mps 734 mmHg 56%
    19:00 +35°C° 0.1 mm 2 mps 734 mmHg 61%
    20:00 +34°C° 0.1 mm 2 mps 734 mmHg 65%
    21:00 +34°C° 2.3 mm 2 mps 734 mmHg 69%
    22:00 +32°C° 2.3 mm 2 mps 734 mmHg 72%
    23:00 +32°C° 2.3 mm 2 mps 734 mmHg 75%
    Show more